TimeMDT,TemperatureF,Dew PointF,Humidity,Sea Level PressureIn,VisibilityMPH,Wind Direction,Wind SpeedMPH,Gust SpeedMPH,PrecipitationIn,Events,Conditions,WindDirDegrees,DateUTC
12:00 AM,30,,,30.07,,Calm,Calm,,,,,,2013-06-27 06:00:00
12:00 AM,30.2,-9999,N/A,30.07,-9999.0,North,-9999.0,-,N/A,,Unknown,0,2013-06-27 06:00:00
1:00 AM,28.4,-9999,N/A,30.08,-9999.0,North,-9999.0,-,N/A,,Unknown,0,2013-06-27 07:00:00
2:00 AM,26.6,-9999,N/A,30.09,-9999.0,North,-9999.0,-,N/A,,Unknown,0,2013-06-27 08:00:00
3:00 AM,26.6,-9999,N/A,30.08,-9999.0,North,-9999.0,-,N/A,,Unknown,0,2013-06-27 09:00:00
4:00 AM,26.6,-9999,N/A,30.09,-9999.0,North,-9999.0,-,N/A,,Unknown,0,2013-06-27 10:00:00
5:00 AM,28.4,-9999,N/A,30.09,-9999.0,North,-9999.0,-,N/A,,Unknown,0,2013-06-27 11:00:00
6:00 AM,29,,,30.09,,Calm,Calm,,,,,,2013-06-27 12:00:00
6:00 AM,28.4,-9999,N/A,30.09,-9999.0,North,-9999.0,-,N/A,,Unknown,0,2013-06-27 12:00:00
7:00 AM,32.0,-9999,N/A,30.09,-9999.0,North,-9999.0,-,N/A,,Unknown,0,2013-06-27 13:00:00
8:00 AM,33.8,-9999,N/A,30.09,-9999.0,North,-9999.0,-,N/A,,Unknown,0,2013-06-27 14:00:00
9:00 AM,35.6,-9999,N/A,30.09,-9999.0,North,-9999.0,-,N/A,,Unknown,0,2013-06-27 15:00:00
10:00 AM,37.4,-9999,N/A,30.10,-9999.0,North,-9999.0,-,N/A,,Unknown,0,2013-06-27 16:00:00
11:00 AM,39.2,-9999,N/A,30.10,-9999.0,North,-9999.0,-,N/A,,Unknown,0,2013-06-27 17:00:00
12:00 PM,41.0,-9999,N/A,30.10,-9999.0,North,-9999.0,-,N/A,,Unknown,0,2013-06-27 18:00:00
1:00 PM,42.8,-9999,N/A,30.09,-9999.0,North,-9999.0,-,N/A,,Unknown,0,2013-06-27 19:00:00
2:00 PM,44.6,-9999,N/A,30.09,-9999.0,North,-9999.0,-,N/A,,Unknown,0,2013-06-27 20:00:00
3:00 PM,44.6,-9999,N/A,30.09,-9999.0,North,-9999.0,-,N/A,,Unknown,0,2013-06-27 21:00:00
4:00 PM,44.6,-9999,N/A,30.08,-9999.0,North,-9999.0,-,N/A,,Unknown,0,2013-06-27 22:00:00
5:00 PM,44.6,-9999,N/A,30.07,-9999.0,North,-9999.0,-,N/A,,Unknown,0,2013-06-27 23:00:00
6:00 PM,44,,,30.06,,Calm,Calm,,,,,,2013-06-28 00:00:00
6:00 PM,44.6,-9999,N/A,30.06,-9999.0,North,-9999.0,-,N/A,,Unknown,0,2013-06-28 00:00:00
7:00 PM,42.8,-9999,N/A,30.06,-9999.0,North,-9999.0,-,N/A,,Unknown,0,2013-06-28 01:00:00
8:00 PM,42.8,-9999,N/A,30.04,-9999.0,North,-9999.0,-,N/A,,Unknown,0,2013-06-28 02:00:00
9:00 PM,42.8,-9999,N/A,30.02,-9999.0,North,-9999.0,-,N/A,,Unknown,0,2013-06-28 03:00:00
10:00 PM,42.8,-9999,N/A,30.00,-9999.0,North,-9999.0,-,N/A,,Unknown,0,2013-06-28 04:00:00
11:00 PM,42.8,-9999,N/A,29.98,-9999.0,North,-9999.0,-,N/A,,Unknown,0,2013-06-28 05:00:00